Tracking 27420 objects as of 10-Jun-2023
HD Live streaming from Space Station
objects crossing your sky now

FREGAT DEB

Track FREGAT DEB now!
10-day predictions


NORAD ID: 45614
Int'l Code: 2011-037H
Perigee: 585.5 km
Apogee: 2,843.7 km
Inclination: 51.3 °
Period: 120.6 minutes
Semi major axis: 8085 km
RCS: Unknown
Launch date: July 18, 2011
Source: Commonwealth of Independent States (former USSR) (CIS)
Launch site: TYURATAM MISSILE AND SPACE COMPLEX (TTMTR)

Note: This is SATELLITE DEBRIS
Your satellite tracking list
Your tracking list is empty




NASA's NSSDC Master Catalog

Two Line Element Set (TLE):
1 45614U 11037H   23161.16226942  .00142832  00000-0  88443-1 0  9995
2 45614  51.3114  11.4636 1396442  96.0245 280.0993 11.94086673129764
Source of the keplerian elements: AFSPC